Regional Weather Roundup
Issued by NWS

Home | Current Version | Previous Version | Text Only | Print | Product List | Glossary Off
Versions: 1 2 3 4 5 6 7 8 9 10 11 12 13 14 15 16 17 18 19 20 21 22 23 24 25 26 27 28 29 30 31 32 33 34 35 36 37 38 39 40 41 42 43 44 45 46 47 48 49 50

000
ASUS43 KBIS 152220
RWRND

NORTH DAKOTA REGIONAL WEATHER ROUNDUP
NATIONAL WEATHER SERVICE BISMARCK ND
500 PM CDT MON SEP 15 2014

NOTE: "FAIR" INDICATES FEW OR NO CLOUDS BELOW 12,000 FEET WITH NO
SIGNIFICANT WEATHER AND/OR OBSTRUCTIONS TO VISIBILITY.


NDZ001>003-009>011-017-152300-
NORTHWEST NORTH DAKOTA

CITY           SKY/WX    TMP DP  RH WIND       PRES   REMARKS
WILLISTON      SUNNY     68  32  26 S9        30.10F
MINOT          SUNNY     67  32  27 W8        30.10F
MINOT AFB      SUNNY     67  35  30 W12       30.09F
$$

NDZ018>021-031>035-040>046-152300-
SOUTHWEST NORTH DAKOTA

CITY           SKY/WX    TMP DP  RH WIND       PRES   REMARKS
BISMARCK       SUNNY     69  34  27 SW9       30.16F
DICKINSON      SUNNY     66  36  32 SW15      30.11F
GARRISON         N/A     67  37  33 W10       30.12F
HETTINGER ARPT SUNNY     65  37  35 S10G17    30.16F
$$

NDZ004>008-012>016-024-026-027-054-152300-
NORTHEAST NORTH DAKOTA

CITY           SKY/WX    TMP DP  RH WIND       PRES   REMARKS
GRAND FORKS    MOSUNNY   68  40  35 W12       30.11F
GRND FRKS AFB  MOSUNNY   67  38  35 W14       30.12F
DEVILS LAKE    SUNNY     66  37  34 W17       30.09F
$$

NDZ022-023-025-028>030-036>039-047>053-152300-
SOUTHEAST NORTH DAKOTA

CITY           SKY/WX    TMP DP  RH WIND       PRES   REMARKS
FARGO          MOSUNNY   65  35  33 W9        30.17S
JAMESTOWN      MOSUNNY   63  37  38 SW15      30.16F
$$



USA.gov is the U.S. government's official web portal to all federal, state and local government web resources and services.